Weather History for Burley, ID

Change the Weather History Date:

Saturday, November 3, 2012

  Actual Average Record
Temperature  
Mean Temperature 44 °F 41 °F  
Max Temperature 61 °F 52 °F 79 °F (1962)
Min Temperature 27 °F 30 °F 5 °F (1991)
Degree Days  
Heating Degree Days 21 24  
Month to date heating degree days 58 71  
Since 1 July heating degree days 646 879  
Cooling Degree Days 0 0  
Month to date cooling degree days 0 0  
Year to date cooling degree days 546 365  
Moisture  
Dew Point 29 °F    
Average Humidity 61    
Maximum Humidity 92    
Minimum Humidity 29    
Precipitation  
Precipitation 0.00 in 0.03 in 0.51 in (1968)
Month to date precipitation T 0.08  
Year to date precipitation 7.48 8.15  
Sea Level Pressure  
Sea Level Pressure 30.20 in    
Wind  
Wind Speed 2 mph (SW)    
Max Wind Speed 10 mph    
Max Gust Speed 12 mph    
Visibility 10 miles    
Events      
T = Trace of Precipitation, MM = Missing Value Source: NWS Daily Summary

Daily Weather History Graph

Daily Weather History Graph

Search for Another Location

Airport:

Trip Planner

Search our weather history database for the weather conditions in past years. The results will help you decide how hot, cold, wet, or windy it might be!

Date:

Astronomy

Nov. 03, 2012 Rise Set
Actual Time 8:11 AM MDT 6:24 PM MDT
Civil Twilight 7:42 AM MDT 6:54 PM MDT
Nautical Twilight 7:09 AM MDT 7:27 PM MDT
Astronomical Twilight 6:36 AM MDT 8:00 PM MDT
Moon 10:07 PM MDT (11/3) 12:21 PM MDT (11/3)
Length of Visible Light 11h 11m
Length of Day
10h 12m
Waning Gibbous, 80% of the Moon is Illuminated
Nov 3
Waning Gibbous
Nov 6
Last Quarter
Nov 13
New
Nov 20
First Quarter
Nov 28
Full

Hourly Weather History & Observations

Time (MDT) Temp. Windchill Dew Point Humidity Pressure Visibility Wind Dir Wind Speed Gust Speed Precip Events Conditions
12:53 AM 35.1 °F 32.2 °F 27.0 °F 72% 30.13 in 10.0 mi South 3.5 mph - N/A   Clear
1:53 AM 34.0 °F - 27.0 °F 75% 30.12 in 10.0 mi Calm Calm - N/A   Clear
2:53 AM 35.1 °F - 30.0 °F 82% 30.12 in 10.0 mi Calm Calm - N/A   Clear
3:53 AM 34.0 °F - 28.9 °F 82% 30.12 in 10.0 mi Calm Calm - N/A   Clear
4:53 AM 30.0 °F - 28.0 °F 92% 30.14 in 10.0 mi Calm Calm - N/A   Clear
5:53 AM 30.0 °F - 27.0 °F 88% 30.17 in 10.0 mi Calm Calm - N/A   Clear
6:53 AM 28.0 °F - 26.1 °F 92% 30.20 in 10.0 mi Calm Calm - N/A   Clear
7:53 AM 28.0 °F - 26.1 °F 92% 30.21 in 10.0 mi Calm Calm - N/A   Clear
8:53 AM 30.9 °F - 27.0 °F 85% 30.23 in 10.0 mi Calm Calm - N/A   Clear
9:53 AM 36.0 °F - 30.0 °F 79% 30.25 in 10.0 mi Calm Calm - N/A   Clear
10:53 AM 41.0 °F - 32.0 °F 70% 30.25 in 10.0 mi Calm Calm - N/A   Clear
11:53 AM 46.9 °F - 33.1 °F 59% 30.25 in 10.0 mi Calm Calm - N/A   Clear
12:53 PM 54.0 °F - 34.0 °F 47% 30.22 in 10.0 mi East 3.5 mph - N/A   Clear
1:53 PM 57.9 °F - 30.0 °F 35% 30.19 in 10.0 mi Calm Calm - N/A   Clear
2:53 PM 59.0 °F - 28.9 °F 32% 30.17 in 10.0 mi West 4.6 mph - N/A   Clear
3:53 PM 60.1 °F - 28.9 °F 31% 30.17 in 10.0 mi Variable 4.6 mph - N/A   Clear
4:53 PM 60.1 °F - 30.0 °F 32% 30.18 in 10.0 mi WSW 4.6 mph - N/A   Clear
5:53 PM 55.9 °F - 30.9 °F 39% 30.19 in 10.0 mi West 4.6 mph - N/A   Clear
6:53 PM 51.1 °F - 30.0 °F 44% 30.21 in 10.0 mi Calm Calm - N/A   Clear
7:53 PM 46.0 °F 44.8 °F 32.0 °F 58% 30.25 in 10.0 mi SW 3.5 mph - N/A   Clear
8:53 PM 41.0 °F 37.1 °F 30.9 °F 67% 30.26 in 10.0 mi South 5.8 mph - N/A   Clear
9:53 PM 44.1 °F 41.5 °F 30.0 °F 58% 30.25 in 10.0 mi SW 4.6 mph - N/A   Clear
10:53 PM 39.9 °F 36.7 °F 30.0 °F 68% 30.25 in 10.0 mi SW 4.6 mph - N/A   Clear
11:53 PM 42.1 °F 39.2 °F 30.0 °F 62% 30.24 in 10.0 mi SW 4.6 mph - N/A   Clear